Tracking 28790 objects as of 19-Apr-2024
HD Live streaming from Space Station
objects crossing your sky now

PACE

Track PACE now!
10-day predictions
PACE is classified as:


NORAD ID: 40022
Int'l Code: 2014-033N
Perigee: 576.8 km
Apogee: 593.2 km
Inclination: 98.0 °
Period: 96.2 minutes
Semi major axis: 6955 km
RCS: Unknown
Launch date: June 19, 2014
Source: Taiwan (Republic of China) (ROC)
Launch site: Orenburg, Russia (OREN)
Your satellite tracking list
Your tracking list is empty




NASA's NSSDC Master Catalog

Two Line Element Set (TLE):
1 40022U 14033N   24110.12062208  .00010856  00000-0  95965-3 0  9995
2 40022  98.0366  67.1184 0011810  12.6408 347.5106 14.96460992534380
Source of the keplerian elements: AFSPC